Regional Weather Roundup
Issued by NWS

Home | Current Version | Previous Version | Text Only | Print | Product List | Glossary Off
Versions: 1 2 3 4 5 6 7 8 9 10 11 12 13 14 15 16 17 18 19 20 21 22 23 24 25 26 27 28 29 30 31 32 33 34 35 36 37 38 39 40 41 42 43 44 45 46 47 48 49 50

097
ASUS43 KDMX 160606
RWRIA

WEATHER ROUNDUP FOR IOWA
NATIONAL WEATHER SERVICE DES MOINES IA
1200 AM CST MON JAN 16 2017

NOTE: "FAIR" INDICATES FEW OR NO CLOUDS BELOW 12,000 FEET WITH NO
SIGNIFICANT WEATHER AND/OR OBSTRUCTIONS TO VISIBILITY.

* - THESE STATIONS ARE NOT NWS STATIONS...THUS NOT UNDER NWS
QUALITY CONTROL.  THEY ALSO DO NOT REPORT WEATHER SUCH
AS PRECIPITATION OR FOG.

IAZ001>003-012>014-020>022-031>034-043>046-160700-
   NORTHWEST IOWA

CITY           SKY/WX    TMP DP  RH WIND       PRES   REMARKS
CARROLL *      CLOUDY    32  32 100 E9        30.15F FOG     WCI  24
CHEROKEE *     MIX PCPN  29  28  95 SE3       30.15F
DENISON *      CLOUDY    32  32 100 E5        30.13S WCI  27
LE MARS *      CLOUDY    30  25  80 SE5       30.15F WCI  25
ORANGE CITY *  CLOUDY    28  25  86 SE3       30.14S
SHELDON *      CLOUDY    25  23  93 SE5       30.13F WCI  19
SIOUX CITY     CLOUDY    32  29  88 E3        30.15F
6HR MIN TEMP:  31; 6HR MAX TEMP:  33; 6HR PCP: TRACE;

SPENCER        CLOUDY    24  20  84 CALM      30.16F
6HR MIN TEMP:  18; 6HR MAX TEMP:  25;

STORM LAKE *   CLOUDY    28  27  93 E6        30.15S FOG     WCI  22
$$

IAZ055>058-069>071-079>083-090>094-160700-
   SOUTHWEST IOWA

CITY           SKY/WX    TMP DP  RH WIND       PRES   REMARKS
ATLANTIC *     CLOUDY    32  32 100 E5        30.15S FOG     WCI  27
AUDUBON *      MIX PCPN  32  28  86 SE5       30.15F WCI  27
CLARINDA *     CLOUDY    32  32 100 SE5       30.17R WCI  27
COUNCIL BLFS * CLOUDY    32  32 100 E3        30.14S FOG
CRESTON *      CLOUDY    30  30 100 SE10      30.15F FOG     WCI  21
HARLAN  *      CLOUDY    32  32 100 SE5       30.18R FOG     WCI  27
LAMONI         CLOUDY    31  30  96 SE5       30.15S FOG     WCI  26
6HR MIN TEMP:  30; 6HR MAX TEMP:  31; 6HR PCP:  0.08;

RED OAK *      MIX PCPN  32  32 100 SE6       30.15S WCI  26
SHENANDOAH *   CLOUDY    32  32 100 SE5       30.16S WCI  27
$$

IAZ047>049-059>061-072>074-084-160700-
   CENTRAL IOWA

CITY           SKY/WX    TMP DP  RH WIND       PRES   REMARKS
AMES           MIX PCPN  30  30 100 E8        30.19F FOG     WCI  22
6HR MIN TEMP:  30; 6HR MAX TEMP:  31; 6HR PCP:  0.03;

ANKENY *       CLOUDY    30  28  93 MISG      30.20S FOG
BOONE *        CLOUDY    30  30 100 MISG      30.17S FOG
CHARITON *     LGT RAIN  30  30 100 E8        30.17F WCI  23
DES MOINES     FRZ DRZL  31  29  92 E5        30.19S FOG     WCI  26
6HR MIN TEMP:  31; 6HR MAX TEMP:  33; 6HR PCP:  0.10;

GRINNELL*      MIX PCPN  29  28  93 E10       30.21S WCI  20
KNOXVILLE *    CLOUDY    30  27  86 E6        30.18S FOG     WCI  24
MARSHALLTOWN   FRZ RAIN  29  25  85 SE12      30.20F FOG     WCI  19
6HR MIN TEMP:  28; 6HR MAX TEMP:  30; 6HR PCP: TRACE;

NEWTON *       CLOUDY    30  28  93 E9        30.19F FOG     WCI  22
PELLA *        CLOUDY    30  28  92 E5        30.22S FOG     WCI  25
PERRY *        DRIZZLE   31  30  99 E8        30.18S WCI  23
$$

IAZ004>006-015-016-023>025-035-036-160700-
   NORTH CENTRAL IOWA

CITY           SKY/WX    TMP DP  RH WIND       PRES   REMARKS
ALGONA *       CLOUDY    28  23  80 SE7       30.17F WCI  21
CLARION *      CLOUDY    28  27  93 SE9       30.18F WCI  20
ESTHERVILLE    CLOUDY    23  21  92 SE5       30.16F WCI  17
6HR MIN TEMP:  21; 6HR MAX TEMP:  25;

FORT DODGE *   CLOUDY    28  25  86 SE7       30.19S WCI  21
MASON CITY     CLOUDY    23  18  81 E5        30.21F WCI  17
6HR MIN TEMP:  16; 6HR MAX TEMP:  23;

FOREST CITY *  MOCLDY    25  19  80 SE5       30.20S WCI  19
WEBSTER CITY * MIX PCPN  30  30 100 SE10      30.17S WCI  21
IOWA FALLS *   MIX PCPN  30  25  81 SE9       30.21S WCI  22
$$

IAZ007>011-017>019-026>030-037>042-050>054-066-160700-
   NORTHEAST IOWA

CITY           SKY/WX    TMP DP  RH WIND       PRES   REMARKS
CEDAR RAPIDS   CLOUDY    30  21  69 E5        30.22F WCI  25
6HR MIN TEMP:  27; 6HR MAX TEMP:  30; 6HR PCP: TRACE;

CHARLES CITY * CLOUDY    23  21  93 E7        30.22S WCI  15
CLINTON *      CLOUDY    31  26  82 E8        30.26F WCI  23
DECORAH *      CLOUDY    21  18  86 SE3       30.22F
DUBUQUE        CLOUDY    27  18  69 SE5       30.24F WCI  22
6HR MIN TEMP:  25; 6HR MAX TEMP:  28;

MONTICELLO *   CLOUDY    30  19  64 E5        30.24F WCI  25
OELWEIN *      CLOUDY    28  21  74 SE7       30.23F WCI  21
WATERLOO       CLOUDY    29  19  66 SE6       30.23F WCI  23
6HR MIN TEMP:  25; 6HR MAX TEMP:  29;

$$

IAZ064-065-067-068-078-160700-
   EAST CENTRAL IOWA

CITY           SKY/WX    TMP DP  RH WIND       PRES   REMARKS
DAVENPORT      CLOUDY    31  25  78 E7        30.25F WCI  24
6HR MIN TEMP:  29; 6HR MAX TEMP:  31;

IOWA CITY      CLOUDY    32  24  72 E5        30.25F WCI  27
6HR MIN TEMP:  32; 6HR MAX TEMP:  33;

MUSCATINE *    CLOUDY    32  28  86 E6        30.24F WCI  26
QUAD CITIES    CLOUDY    33  27  78 E7        30.24F HAZE    WCI  27
6HR MIN TEMP:  31; 6HR MAX TEMP:  33;

$$

IAZ062-063-075>077-085>089-095>099-160700-
   SOUTHEAST IOWA

CITY           SKY/WX    TMP DP  RH WIND       PRES   REMARKS
BURLINGTON     CLOUDY    32  29  88 SE8       30.22F FOG     WCI  25
6HR MIN TEMP:  32; 6HR MAX TEMP:  32;

FAIRFIELD *    CLOUDY    30  27  86 E7        30.21S FOG     WCI  23
FORT MADISON * CLOUDY    32  28  86 E6        30.22F FOG     WCI  26
KEOKUK *       CLOUDY    32  32 100 E6        30.21F FOG     WCI  26
OSKALOOSA *    MIX PCPN  29  27  92 SE9       30.21S WCI  21
CENTERVILLE *  CLOUDY    28  28 100 CALM      30.19F FOG
OTTUMWA        CLOUDY    30  27  88 E7        30.19S FOG     WCI  23
6HR MIN TEMP:  30; 6HR MAX TEMP:  31; 6HR PCP:  0.01;

WASHINGTON *   CLOUDY    30  30 100 E12       30.23F FOG     WCI  21
$$

ABBREVIATIONS USED IN REMARKS
   TC - TEMPERATURES IN CELSIUS
  WCI - WIND CHILL INDEX
   HX - HEAT INDEX
  VSB - VISIBILITY
$$





USA.gov is the U.S. government's official web portal to all federal, state and local government web resources and services.